Overview Statistics Trail Chart Weather Telemetry Raw packets
 

This is the latest recevied weather packets stored in our database for station/object DK6GC-10. If no packets are shown the sender has not sent any weather packets the latest 10 day(s).

<< 18 19 20 21 22 23 24 >>
Time Temp. Humidity Pressure Rain* Wind** Luminosity Snow
1788264027 24.44° C 49% 1023.5 hPa - - - -
1788263123 24.44° C 48% 1023.5 hPa - - - -
1788262223 24.44° C 48% 1023.5 hPa - - - -
1788261323 25° C 51% 1023.7 hPa - - - -
1788260423 22.78° C 53% 1023.8 hPa - - - -
1788259523 25° C 53% 1023.8 hPa - - - -
1788258639 22.78° C 56% 1023.8 hPa - - - -
1788257722 23.33° C 54% 1023.8 hPa - - - -
1788256822 23.89° C 58% 1023.9 hPa - - - -
1788255922 22.22° C 56% 1023.9 hPa - - - -
1788255022 23.33° C 58% 1024 hPa - - - -
1788254122 23.33° C 56% 1024 hPa - - - -
1788253221 23.33° C 60% 1023.9 hPa - - - -
1788252321 22.22° C 63% 1024 hPa - - - -
1788251421 21.67° C 62% 1024.1 hPa - - - -
1788250521 21.67° C 62% 1024.1 hPa - - - -
1788249621 21.67° C 63% 1024 hPa - - - -
1788248721 21.67° C 63% 1023.9 hPa - - - -
1788247820 20.56° C 69% 1023.8 hPa - - - -
1788246920 20° C 74% 1023.8 hPa - - - -
1788246020 18.89° C 78% 1023.7 hPa - - - -
1788245119 18.33° C 79% 1023.7 hPa - - - -
1788244224 17.22° C 89% 1023.5 hPa - - - -
1788243318 17.22° C 87% 1023.5 hPa - - - -
1788242422 17.22° C 86% 1023.5 hPa - - - -

* Rain since midnight (hover to see other rain measurements)
** Current wind speed in m/s (hover to see current wind gust speed)